Regional Weather Roundup
Issued by NWS

Home | Current Version | Previous Version | Text Only | Print | Product List | Glossary On
Versions: 1 2 3 4 5 6 7 8 9 10 11 12 13 14 15 16 17 18 19 20 21 22 23 24 25 26 27 28 29 30 31 32 33 34 35 36 37 38 39 40 41 42 43 44 45 46 47 48 49 50
000
ASUS45 KBOI 280110
RWRID
WEATHER ROUNDUP FOR IDAHO
NATIONAL WEATHER SERVICE BOISE ID
600 PM MST THU NOV 27 2014

NOTE: "FAIR" INDICATES FEW OR NO CLOUDS BELOW 12000 FEET
WITH NO SIGNIFICANT WEATHER AND/OR OBSTRUCTIONS TO VISIBILITY

IDZ012-014-280200-
SOUTHWEST IDAHO


CITY           SKY/WX    TMP DP  RH WIND       PRES   REMARKS
BOISE          CLOUDY    50  42  74 CALM      30.04F
CALDWELL       NOT AVBL
MOUNTAIN HOME  MOCLDY    45  45 100 E5        30.03F
$$

IDZ016-017-280200-
SOUTHCENTRAL IDAHO


CITY           SKY/WX    TMP DP  RH WIND       PRES   REMARKS
BURLEY         CLOUDY    50  32  50 SW8       30.08F
JEROME         CLOUDY    48  33  56 CALM      30.08F
TWIN FALLS     CLOUDY    48  33  56 S7        30.08F
$$

IDZ019>023-280200-
SOUTHEAST IDAHO


CITY           SKY/WX    TMP DP  RH WIND       PRES   REMARKS
IDAHO FALLS    CLOUDY    51  30  44 S14       30.09F
POCATELLO      CLEAR     52  26  36 S16       30.10F
REXBURG        CLOUDY    49  29  46 S16G23    30.07F
$$

IDZ006-010-011-018-031-032-280200-
CENTRAL IDAHO MOUNTAINS


CITY           SKY/WX    TMP DP  RH WIND       PRES   REMARKS
MCCALL         RAIN      39  37  92 S6        30.09R FOG     WCI  35
HAILEY         CLOUDY    46  36  66 CALM      30.12F
STANLEY          N/A     38  33  82 CALM      30.14S
SALMON         CLOUDY    46  34  61 S9G17     30.01R
CHALLIS        CLOUDY    51  32  48 S3G22     30.06R
$$

IDZ002-004-006-007-026-280200-
NORTHERN IDAHO


CITY           SKY/WX    TMP DP  RH WIND       PRES   REMARKS
LEWISTON       CLOUDY    59  45  59 S20       29.85R
LOWELL           N/A     43  41  93 N3        29.98F
COEUR D`ALENE  CLOUDY    52  41  66 W12G18    29.77F
MULLAN PASS    LGT RAIN  35  35 100 SW12G24   29.82F VSB 1/2 WCI  27
$$



USA.gov is the U.S. government's official web portal to all federal, state and local government web resources and services.